Home > Weather > Montgomery > Past weeks

Flag for USA Past Weather in Montgomery, Alabama, USA — Yesterday and Last 2 Weeks

Now
80 °F

Passing clouds.


Feels Like: 85 °F
Forecast: 75 / 89 °F
Wind: 3 mph from Southwest

Location: Maxwell Air Force Base / Montgomery

Current Time: Jul 26, 2016 at 8:53:23 PM

Latest Report: Jul 26, 2016 at 7:58 PM


Visibility: 10 mi

Pressure: 29.99 "Hg

Humidity: 80%

Dew Point: 74 °F

Location of MontgomeryLocation

Past Weather in Montgomery — Graph

°F

Montgomery Temperature Yesterday

Maximum temperature yesterday: 95 °F (at 4:58 PM)
Minimum temperature yesterday: 75 °F (at 4:58 AM)
Average temperature yesterday: 85 °F

High & Low Weather Summary for the Past Weeks

 TemperatureHumidityPressure
High97 °F (Jul 20, 2:58 PM)100% (Jul 12, 4:03 AM)30.27 "Hg (Jul 12, 4:03 AM)
Low70 °F (Jul 15, 5:58 AM)43% (Jul 15, 3:58 PM)29.93 "Hg (Jul 23, 5:58 PM)
Average82 °F77%30.08 "Hg
* Reported Jul 11 7:58 PM — Jul 26 7:58 PM, Montgomery, Weather by CustomWeather, © 2016

Note: Actual official high and low records may vary slightly from our data, if they occured in-between our weather recording intervals... More about our weather records

Advertising

Montgomery Weather History for the Previous 24 Hours

Scroll right to see more
 ConditionsComfort  
Time TempWeatherWind HumidityBarometerVisibility
7:58 PM
Tue, Jul 26
80 °FPassing clouds.3 mph80%29.99 "Hg10 mi
6:58 PM87 °FBroken clouds.12 mph66%29.97 "Hg10 mi
5:58 PM89 °FSunny.10 mph63%29.96 "Hg10 mi
4:59 PM88 °FDrizzle. Partly sunny.13 mph66%29.95 "Hg10 mi
4:58 PM89 °FPartly sunny.12 mph64%29.96 "Hg10 mi
3:58 PM87 °FScattered clouds.12 mph68%29.97 "Hg10 mi
2:58 PM84 °FMostly cloudy.13 mph71%29.99 "Hg10 mi
1:59 PM91 °FScattered clouds.22 mph56%29.98 "Hg10 mi
1:58 PM93 °FScattered clouds.21 mph52%29.98 "Hg10 mi
12:58 PM91 °FScattered clouds.9 mph55%30.00 "Hg10 mi
11:58 AM90 °FScattered clouds.7 mph58%30.01 "Hg10 mi
10:58 AM88 °FPassing clouds.9 mph61%30.02 "Hg10 mi
6:58 AM76 °FSunny.6 mph89%30.03 "Hg10 mi
5:58 AM75 °FClear.3 mph93%30.02 "Hg10 mi
4:58 AM76 °FClear.6 mph90%30.00 "Hg10 mi
3:58 AM76 °FClear.3 mph91%30.00 "Hg10 mi
2:58 AM75 °FClear.No wind92%30.00 "Hg10 mi
1:58 AM77 °FClear.No wind85%30.01 "Hg10 mi
12:58 AM78 °FClear.No wind83%30.02 "Hg10 mi
11:58 PM
Mon, Jul 25
78 °FClear.3 mph83%30.02 "Hg10 mi
10:58 PM78 °FClear.No wind82%30.02 "Hg10 mi
9:58 PM82 °FClear.5 mph69%30.01 "Hg10 mi
8:58 PM85 °FClear.8 mph63%30.00 "Hg10 mi
Weather by CustomWeather, © 2016

See weather overviewHow to use our weather pages